Dyersburg, TN

7:21 AM CST on December 08, 2019 (GMT -0600)
Dyersburg Municipal

Weather History for KDYR - October, 2019

Change the Weather History Date:

Wednesday, October 9, 2019

  Actual Average Record
Temperature  
Mean Temperature 66 °F -  
Max Temperature 81 °F 71 °F 91 °F (2017)
Min Temperature 50 °F 50 °F 32 °F (2000)
Growing Degree Days 16 (Base 50)    
Moisture  
Dew Point 55 °F    
Average Humidity 74    
Maximum Humidity 93    
Minimum Humidity 49    
Precipitation  
Precipitation 0.00 in - - ()
Sea Level Pressure  
Sea Level Pressure 30.07 in    
Wind  
Wind Speed 2 mph ()    
Max Wind Speed 9 mph    
Max Gust Speed -    
Visibility 10.0 miles    
Events      
Averages and records for this station are not official NWS values.
T = Trace of Precipitation, MM = Missing Value Source: Averaged Metar Reports

Daily Weather History Graph

Daily Weather History Graph

Search for Another Location

Airport or City:

Astronomy

Oct. 09, 2019 Rise Set
Actual Time 6:59 AM CDT 6:30 PM CDT
Civil Twilight 6:33 AM CDT 6:55 PM CDT
Nautical Twilight 6:03 AM CDT 7:25 PM CDT
Astronomical Twilight 5:34 AM CDT 7:55 PM CDT
Moon 4:52 PM CDT (10/9) 2:56 AM CDT (10/9)
Length of Visible Light 12h 22m
Length of Day
11h 31m
Waxing Gibbous, 85% of the Moon is Illuminated
Oct 9
Waxing Gibbous
Oct 13
Full
Oct 21
Last Quarter
Oct 27
New
Nov 4
First Quarter

Hourly Weather History & Observations

Time (CDT) Temp. Heat Index Dew Point Humidity Pressure Visibility Wind Dir Wind Speed Gust Speed Precip Events Conditions
12:56 AM 53.1 °F - 48.0 °F 83% 30.10 in 10.0 mi Calm Calm - N/A   Clear
1:56 AM 53.1 °F - 48.0 °F 83% 30.10 in 10.0 mi Calm Calm - N/A   Clear
2:56 AM 52.0 °F - 48.0 °F 86% 30.09 in 10.0 mi Calm Calm - N/A   Clear
3:56 AM 51.1 °F - 48.9 °F 92% 30.10 in 10.0 mi Calm Calm - N/A   Clear
4:56 AM 50.0 °F - 48.0 °F 93% 30.10 in 10.0 mi Calm Calm - N/A   Clear
5:56 AM 51.1 °F - 48.9 °F 92% 30.11 in 10.0 mi ENE 3.5 mph - N/A   Clear
6:56 AM 51.1 °F - 48.0 °F 89% 30.11 in 10.0 mi East 3.5 mph - N/A   Clear
7:56 AM 54.0 °F - 50.0 °F 86% 30.11 in 10.0 mi ENE 4.6 mph - N/A   Clear
8:56 AM 60.1 °F - 54.0 °F 80% 30.13 in 10.0 mi Calm Calm - N/A   Clear
9:56 AM 66.0 °F - 55.9 °F 70% 30.14 in 10.0 mi East 4.6 mph - N/A   Clear
10:56 AM 71.1 °F - 59.0 °F 66% 30.13 in 10.0 mi ESE 6.9 mph - N/A   Clear
11:56 AM 75.0 °F - 61.0 °F 62% 30.11 in 10.0 mi Variable 5.8 mph - N/A   Clear
12:56 PM 75.9 °F - 61.0 °F 60% 30.09 in 10.0 mi Calm Calm - N/A   Clear
1:56 PM 79.0 °F - 60.1 °F 52% 30.04 in 10.0 mi ESE 9.2 mph - N/A   Clear
2:56 PM 80.1 °F 80.9 °F 60.1 °F 50% 30.02 in 10.0 mi ESE 8.1 mph - N/A   Clear
3:56 PM 81.0 °F 81.6 °F 60.1 °F 49% 30.01 in 10.0 mi SE 8.1 mph - N/A   Clear
4:56 PM 78.1 °F - 59.0 °F 52% 30.01 in 10.0 mi South 4.6 mph - N/A   Clear
5:56 PM 78.1 °F - 57.9 °F 50% 30.01 in 10.0 mi Calm Calm - N/A   Clear
6:56 PM 70.0 °F - 59.0 °F 68% 30.02 in 10.0 mi Calm Calm - N/A   Clear
7:56 PM 68.0 °F - 60.1 °F 76% 30.04 in 10.0 mi SE 4.6 mph - N/A   Clear
8:56 PM 64.9 °F - 60.1 °F 84% 30.04 in 10.0 mi SE 3.5 mph - N/A   Clear
9:56 PM 63.0 °F - 59.0 °F 87% 30.05 in 10.0 mi Calm Calm - N/A   Clear
10:56 PM 63.0 °F - 57.9 °F 84% 30.05 in 10.0 mi Calm Calm - N/A   Partly Cloudy
11:56 PM 63.0 °F - 57.0 °F 81% 30.04 in 10.0 mi SE 4.6 mph - N/A   Partly Cloudy